DW0372 Weather Reports


time (UTC)temp
C
wind
direction
speed
KPH
gust
KPH
rain 1hr
cm
rain 24hr
cm
rain mn
cm
humidity
%
barometer
mb
20260505052004 17 349 0.0 0.0 0.00 0.00 0.00 65 1011.0
20260505051003 17 349 0.0 0.0 0.00 0.00 0.00 64 1010.8
20260505050503 17 349 0.0 0.0 0.00 0.00 0.00 64 1010.8
20260505041505 17 349 0.0 4.8 0.00 0.00 0.00 58 1010.2
20260505041006 17 283 0.0 0.0 0.00 0.00 0.00 59 1010.2
20260505040506 18 283 0.0 1.6 0.00 0.00 0.00 58 1010.1
20260505035503 18 359 0.0 4.8 0.00 0.00 0.00 56 1010.0
20260505035004 18 359 0.0 8.0 0.00 0.00 0.00 56 1009.9
20260505034521 18 359 0.0 11.3 0.00 0.00 0.00 55 1009.8
20260505034003 18 310 1.6 11.3 0.00 0.00 0.00 55 1009.8
20260505033006 19 349 3.2 14.5 0.00 0.00 0.00 52 1009.7
20260505032503 19 350 4.8 12.9 0.00 0.00 0.00 52 1009.6
20260505032005 20 357 4.8 11.3 0.00 0.00 0.00 51 1009.6
20260505031522 20 8 4.8 11.3 0.00 0.00 0.00 51 1009.5
20260505031003 20 331 4.8 11.3 0.00 0.00 0.00 50 1009.5
20260505030504 21 4 0.0 9.7 0.00 0.00 0.00 51 1009.4
20260505030011 21 357 4.8 11.3 0.00 0.00 0.00 50 1009.3
20260505025509 22 360 3.2 11.3 0.00 0.00 0.00 48 1009.3
20260505025007 22 1 1.6 8.0 0.00 0.00 0.00 48 1009.2
20260505024505 22 9 0.0 8.0 0.00 0.00 0.00 46 1009.1
20260505024003 23 349 0.0 6.4 0.00 0.00 0.00 44 1009.1
20260505023508 23 16 1.6 6.4 0.00 0.00 0.00 43 1009.0
20260505023022 23 228 0.0 0.0 0.00 0.00 0.00 43 1009.0
20260505022003 24 228 0.0 8.0 0.00 0.00 0.00 42 1009.1
20260505021518 24 228 1.6 8.0 0.00 0.00 0.00 40 1009.0
20260505021003 24 218 0.0 1.6 0.00 0.00 0.00 40 1009.0
20260505020504 24 218 0.0 8.0 0.00 0.00 0.00 42 1009.0
20260505020008 25 218 0.0 9.7 0.00 0.00 0.00 41 1009.1
20260505015505 25 232 0.0 9.7 0.00 0.00 0.00 39 1009.0
20260505015005 25 221 0.0 8.0 0.00 0.00 0.00 41 1009.1
20260505014520 25 221 1.6 8.0 0.00 0.00 0.00 38 1009.0
20260505014006 25 239 0.0 9.7 0.00 0.00 0.00 40 1009.1
20260505013507 25 238 3.2 9.7 0.00 0.00 0.00 38 1009.1
20260505013011 25 210 0.0 4.8 0.00 0.00 0.00 38 1009.1
20260505012507 25 207 0.0 12.9 0.00 0.00 0.00 40 1009.1
20260505012009 25 198 0.0 12.9 0.00 0.00 0.00 37 1009.1
20260505011006 25 238 0.0 11.3 0.00 0.00 0.00 37 1009.3
20260505010506 25 242 1.6 11.3 0.00 0.00 0.00 36 1009.3
20260505010028 25 248 0.0 9.7 0.00 0.00 0.00 38 1009.3
20260505005503 25 251 3.2 9.7 0.00 0.00 0.00 36 1009.3
20260505005004 25 229 0.0 8.0 0.00 0.00 0.00 37 1009.3
20260505004509 25 228 0.0 8.0 0.00 0.00 0.00 36 1009.3
20260505004004 25 234 0.0 9.7 0.00 0.00 0.00 36 1009.3
20260505003505 25 233 4.8 11.3 0.00 0.00 0.00 35 1009.3
20260505003016 25 236 6.4 11.3 0.00 0.00 0.00 35 1009.3
20260505002506 25 239 4.8 9.7 0.00 0.00 0.00 35 1009.3
20260505002005 25 244 4.8 8.0 0.00 0.00 0.00 36 1009.3
20260505001517 25 226 0.0 9.7 0.00 0.00 0.00 36 1009.3
20260505001005 26 249 1.6 9.7 0.00 0.00 0.00 36 1009.3
20260505000506 26 242 0.0 9.7 0.00 0.00 0.00 36 1009.4
20260505000017 26 248 0.0 9.7 0.00 0.00 0.00 35 1009.4
20260504235506 26 227 0.0 8.0 0.00 0.00 0.00 36 1009.4
20260504235003 26 229 0.0 8.0 0.00 0.00 0.00 34 1009.4
20260504234508 26 219 0.0 9.7 0.00 0.00 0.00 35 1009.5
20260504234001 26 225 1.6 12.9 0.00 0.00 0.00 36 1009.5
20260504233503 26 227 3.2 12.9 0.00 0.00 0.00 35 1009.5
20260504233010 26 231 1.6 9.7 0.00 0.00 0.00 34 1009.6
20260504232504 26 238 4.8 8.0 0.00 0.00 0.00 35 1009.5
20260504232002 26 240 0.0 9.7 0.00 0.00 0.00 36 1009.5
20260504231004 26 231 0.0 14.5 0.00 0.00 0.00 35 1009.6
20260504230502 26 258 0.0 14.5 0.00 0.00 0.00 36 1009.6
20260504230007 26 259 3.2 14.5 0.00 0.00 0.00 35 1009.6
20260504225503 26 238 0.0 8.0 0.00 0.00 0.00 36 1009.6
20260504225004 26 230 1.6 12.9 0.00 0.00 0.00 36 1009.6
20260504224508 26 236 3.2 12.9 0.00 0.00 0.00 34 1009.7
20260504224003 26 224 0.0 12.9 0.00 0.00 0.00 35 1009.7
20260504223503 26 231 3.2 11.3 0.00 0.00 0.00 36 1009.8
20260504223003 26 233 1.6 14.5 0.00 0.00 0.00 36 1009.8
20260504222503 26 235 6.4 14.5 0.00 0.00 0.00 35 1009.9
20260504222004 27 223 1.6 9.7 0.00 0.00 0.00 35 1010.0
20260504221516 26 248 0.0 9.7 0.00 0.00 0.00 33 1010.0
20260504221003 26 219 1.6 11.3 0.00 0.00 0.00 35 1010.1
20260504220504 26 245 0.0 11.3 0.00 0.00 0.00 33 1010.1
20260504220004 26 224 3.2 11.3 0.00 0.00 0.00 32 1010.2
20260504215505 26 268 1.6 11.3 0.00 0.00 0.00 33 1010.2
20260504215002 26 245 1.6 11.3 0.00 0.00 0.00 33 1010.2
20260504214503 26 271 1.6 12.9 0.00 0.00 0.00 34 1010.1
20260504214003 26 240 1.6 12.9 0.00 0.00 0.00 33 1010.2
20260504213503 26 274 0.0 12.9 0.00 0.00 0.00 34 1010.2
20260504213006 26 225 3.2 12.9 0.00 0.00 0.00 33 1010.2
20260504212503 26 260 0.0 1.6 0.00 0.00 0.00 36 1010.2
20260504212003 26 4 0.0 8.0 0.00 0.00 0.00 31 1010.2
20260504211504 26 250 1.6 9.7 0.00 0.00 0.00 33 1010.2
20260504211004 26 236 1.6 12.9 0.00 0.00 0.00 31 1010.2
20260504210504 26 243 3.2 12.9 0.00 0.00 0.00 35 1010.2
20260504210010 26 258 1.6 11.3 0.00 0.00 0.00 33 1010.2
20260504205504 26 225 0.0 11.3 0.00 0.00 0.00 34 1010.2
20260504205007 26 235 0.0 12.9 0.00 0.00 0.00 34 1010.3
20260504204505 25 209 3.2 12.9 0.00 0.00 0.00 35 1010.3
20260504204004 25 228 4.8 9.7 0.00 0.00 0.00 37 1010.4
20260504203503 25 248 1.6 9.7 0.00 0.00 0.00 34 1010.4
20260504203006 26 246 0.0 12.9 0.00 0.00 0.00 39 1010.4
20260504202506 25 288 0.0 14.5 0.00 0.00 0.00 38 1010.4
20260504202004 25 219 4.8 14.5 0.00 0.00 0.00 37 1010.4
20260504201509 25 248 4.8 9.7 0.00 0.00 0.00 39 1010.4
20260504201003 25 127 1.6 11.3 0.00 0.00 0.00 41 1010.5
20260504200503 25 231 4.8 11.3 0.00 0.00 0.00 37 1010.5
20260504200016 25 238 0.0 3.2 0.00 0.00 0.00 42 1010.5
20260504195504 25 240 0.0 9.7 0.00 0.00 0.00 43 1010.6
20260504195007 24 205 1.6 9.7 0.00 0.00 0.00 42 1010.6
20260504194509 25 120 0.0 8.0 0.00 0.00 0.00 40 1010.5
20260504194004 23 234 0.0 8.0 0.00 0.00 0.00 40 1010.6
20260504193007 24 165 1.6 9.7 0.00 0.00 0.00 42 1010.6
20260504192503 23 233 1.6 11.3 0.00 0.00 0.00 41 1010.7
20260504192005 23 236 6.4 11.3 0.00 0.00 0.00 40 1010.7
20260504191505 23 237 3.2 9.7 0.00 0.00 0.00 41 1010.8
20260504191003 24 224 0.0 14.5 0.00 0.00 0.00 43 1010.8
20260504190506 23 247 3.2 14.5 0.00 0.00 0.00 42 1010.8
20260504190012 23 229 1.6 8.0 0.00 0.00 0.00 41 1010.8
20260504185503 23 169 0.0 8.0 0.00 0.00 0.00 41 1010.9
20260504185003 23 135 0.0 8.0 0.00 0.00 0.00 44 1011.0
20260504184527 23 238 3.2 8.0 0.00 0.00 0.00 44 1011.0
20260504184006 23 232 0.0 8.0 0.00 0.00 0.00 47 1011.1
20260504183503 22 233 0.0 9.7 0.00 0.00 0.00 45 1011.1
20260504183023 23 185 1.6 9.7 0.00 0.00 0.00 47 1011.1
20260504182506 23 233 0.0 1.6 0.00 0.00 0.00 45 1011.1
20260504182008 22 237 0.0 1.6 0.00 0.00 0.00 48 1011.1
20260504181509 22 237 0.0 6.4 0.00 0.00 0.00 49 1011.1
20260504181003 22 236 0.0 11.3 0.00 0.00 0.00 48 1011.1
20260504180503 22 238 0.0 11.3 0.00 0.00 0.00 49 1011.0
20260504180008 22 232 0.0 6.4 0.00 0.00 0.00 49 1011.0
20260504175502 22 233 0.0 6.4 0.00 0.00 0.00 49 1011.1
20260504175002 21 238 0.0 6.4 0.00 0.00 0.00 48 1011.2
20260504174516 21 238 1.6 6.4 0.00 0.00 0.00 47 1011.1
20260504174005 22 231 0.0 4.8 0.00 0.00 0.00 49 1011.0
20260504173506 21 236 0.0 8.0 0.00 0.00 0.00 49 1011.0
20260504173020 21 235 0.0 8.0 0.00 0.00 0.00 48 1011.1
20260504172507 21 219 0.0 1.6 0.00 0.00 0.00 49 1011.0
20260504172003 21 248 0.0 1.6 0.00 0.00 0.00 52 1011.0
20260504171521 21 252 0.0 6.4 0.00 0.00 0.00 53 1011.0
20260504171011 20 249 0.0 6.4 0.00 0.00 0.00 50 1011.0
20260504170503 21 254 0.0 1.6 0.00 0.00 0.00 50 1010.9
20260504151005 15 11 0.0 1.6 0.00 0.00 0.00 76 1010.3
20260504150510 14 11 0.0 1.6 0.00 0.00 0.00 76 1010.2
20260504141004 11 13 0.0 0.0 0.00 0.00 0.00 84 1010.0
20260504140502 11 13 0.0 0.0 0.00 0.00 0.00 83 1010.0
20260504130502 10 13 0.0 0.0 0.00 0.00 0.00 88 1009.7
20260504110503 11 13 0.0 0.0 0.00 0.00 0.00 84 1009.7
20260504100504 12 13 0.0 0.0 0.00 0.00 0.00 82 1009.6
20260504082002 14 13 0.0 0.0 0.00 0.00 0.00 78 1009.5
20260504081518 14 13 0.0 0.0 0.00 0.00 0.00 75 1009.5
20260504081007 14 13 0.0 0.0 0.00 0.00 0.00 75 1009.6
20260504080507 15 13 0.0 0.0 0.00 0.00 0.00 76 1009.6